Time,TemperatureF,DewpointF,PressureIn,WindDirection,WindDirectionDegrees,WindSpeedMPH,WindSpeedGustMPH,Humidity,HourlyPrecipIn,Conditions,Clouds,dailyrainin,SoftwareType,DateUTC
2013-05-23 00:02:00,57.9,53.8,29.90,SE,138,0.0,0.0,86,0.00,,,0.00,WUHU216DAVISVP2,2013-05-23 05:02:00,
2013-05-23 00:07:00,57.6,53.5,29.90,SE,138,0.0,0.0,86,0.00,,,0.00,WUHU216DAVISVP2,2013-05-23 05:07:00,
2013-05-23 00:12:00,57.4,53.3,29.90,SE,138,0.0,0.0,86,0.00,,,0.00,WUHU216DAVISVP2,2013-05-23 05:12:00,
2013-05-23 00:17:00,57.2,53.4,29.90,SE,138,0.0,0.0,87,0.00,,,0.00,WUHU216DAVISVP2,2013-05-23 05:17:00,
2013-05-23 00:22:00,57.0,53.2,29.90,SE,138,0.0,0.0,87,0.00,,,0.00,WUHU216DAVISVP2,2013-05-23 05:22:00,
2013-05-23 00:27:00,56.7,53.2,29.91,SE,138,0.0,0.0,88,0.00,,,0.00,WUHU216DAVISVP2,2013-05-23 05:27:00,
2013-05-23 00:32:00,56.5,53.0,29.91,SE,138,0.0,0.0,88,0.00,,,0.00,WUHU216DAVISVP2,2013-05-23 05:32:00,
2013-05-23 00:37:00,56.3,53.1,29.91,SE,138,0.0,0.0,89,0.00,,,0.00,WUHU216DAVISVP2,2013-05-23 05:37:00,
2013-05-23 00:42:00,56.3,53.1,29.90,SE,138,0.0,0.0,89,0.00,,,0.00,WUHU216DAVISVP2,2013-05-23 05:42:00,
2013-05-23 00:47:00,56.4,53.2,29.90,SE,138,0.0,0.0,89,0.00,,,0.00,WUHU216DAVISVP2,2013-05-23 05:47:00,
2013-05-23 00:52:00,56.2,53.0,29.91,SE,138,0.0,0.0,89,0.00,,,0.00,WUHU216DAVISVP2,2013-05-23 05:52:00,
2013-05-23 00:57:00,56.0,52.8,29.91,SE,138,0.0,0.0,89,0.00,,,0.00,WUHU216DAVISVP2,2013-05-23 05:57:00,
2013-05-23 01:02:00,55.7,52.5,29.91,SE,138,0.0,0.0,89,0.00,,,0.00,WUHU216DAVISVP2,2013-05-23 06:02:00,
2013-05-23 01:07:00,55.6,52.7,29.91,SE,138,0.0,0.0,90,0.00,,,0.00,WUHU216DAVISVP2,2013-05-23 06:07:00,
2013-05-23 01:12:00,55.5,52.6,29.91,SE,138,0.0,0.0,90,0.00,,,0.00,WUHU216DAVISVP2,2013-05-23 06:12:00,
2013-05-23 01:17:00,55.3,52.4,29.91,SE,138,0.0,0.0,90,0.00,,,0.00,WUHU216DAVISVP2,2013-05-23 06:17:00,
2013-05-23 01:22:00,55.1,52.2,29.91,SE,138,0.0,0.0,90,0.00,,,0.00,WUHU216DAVISVP2,2013-05-23 06:22:00,
2013-05-23 01:27:00,54.9,52.0,29.91,SE,138,0.0,0.0,90,0.00,,,0.00,WUHU216DAVISVP2,2013-05-23 06:27:00,
2013-05-23 01:32:00,54.7,52.1,29.91,SE,138,0.0,0.0,91,0.00,,,0.00,WUHU216DAVISVP2,2013-05-23 06:32:00,
2013-05-23 01:38:00,54.6,52.0,29.91,SE,138,0.0,0.0,91,0.00,,,0.00,WUHU216DAVISVP2,2013-05-23 06:38:00,
2013-05-23 01:43:00,54.4,51.8,29.91,SE,138,0.0,0.0,91,0.00,,,0.00,WUHU216DAVISVP2,2013-05-23 06:43:00,
2013-05-23 01:48:00,54.2,51.9,29.91,SE,138,0.0,0.0,92,0.00,,,0.00,WUHU216DAVISVP2,2013-05-23 06:48:00,
2013-05-23 01:53:00,54.2,51.9,29.91,SE,138,0.0,0.0,92,0.00,,,0.00,WUHU216DAVISVP2,2013-05-23 06:53:00,
2013-05-23 01:58:00,54.1,51.8,29.91,SE,138,0.0,0.0,92,0.00,,,0.00,WUHU216DAVISVP2,2013-05-23 06:58:00,
2013-05-23 02:03:00,54.1,51.7,29.91,SE,138,0.0,0.0,92,0.00,,,0.00,WUHU216DAVISVP2,2013-05-23 07:03:00,
2013-05-23 02:08:00,54.1,51.8,29.91,SE,138,0.0,0.0,92,0.00,,,0.00,WUHU216DAVISVP2,2013-05-23 07:08:00,
2013-05-23 02:13:00,54.1,51.8,29.91,SE,138,0.0,0.0,92,0.00,,,0.00,WUHU216DAVISVP2,2013-05-23 07:13:00,
2013-05-23 02:18:00,54.2,52.2,29.91,SE,138,0.0,0.0,93,0.00,,,0.00,WUHU216DAVISVP2,2013-05-23 07:18:00,
2013-05-23 02:23:00,54.3,52.3,29.91,SE,138,0.0,0.0,93,0.00,,,0.00,WUHU216DAVISVP2,2013-05-23 07:23:00,
2013-05-23 02:28:00,54.1,51.8,29.91,SE,138,0.0,0.0,92,0.00,,,0.00,WUHU216DAVISVP2,2013-05-23 07:28:00,
2013-05-23 02:33:00,54.1,52.1,29.91,SE,138,0.0,1.0,93,0.00,,,0.00,WUHU216DAVISVP2,2013-05-23 07:33:00,
2013-05-23 02:38:00,54.2,52.2,29.91,SE,138,0.0,1.0,93,0.00,,,0.00,WUHU216DAVISVP2,2013-05-23 07:38:00,
2013-05-23 02:43:00,54.2,52.2,29.91,SE,138,0.0,1.0,93,0.00,,,0.00,WUHU216DAVISVP2,2013-05-23 07:43:00,
2013-05-23 02:48:00,54.2,52.1,29.91,SE,138,0.0,1.0,93,0.00,,,0.00,WUHU216DAVISVP2,2013-05-23 07:48:00,
2013-05-23 02:53:00,54.2,52.2,29.91,SE,138,0.0,0.0,93,0.00,,,0.00,WUHU216DAVISVP2,2013-05-23 07:53:00,
2013-05-23 02:58:00,54.1,52.1,29.91,SE,138,0.0,0.0,93,0.00,,,0.00,WUHU216DAVISVP2,2013-05-23 07:58:00,
2013-05-23 03:03:00,54.0,52.0,29.91,SE,138,1.0,3.0,93,0.00,,,0.00,WUHU216DAVISVP2,2013-05-23 08:03:00,
2013-05-23 03:08:00,53.9,51.9,29.91,SE,138,1.0,3.0,93,0.00,,,0.00,WUHU216DAVISVP2,2013-05-23 08:08:00,
2013-05-23 03:13:00,53.9,51.9,29.91,SE,138,0.0,3.0,93,0.00,,,0.00,WUHU216DAVISVP2,2013-05-23 08:13:00,
2013-05-23 03:18:00,53.9,51.8,29.91,SE,138,0.0,3.0,93,0.00,,,0.00,WUHU216DAVISVP2,2013-05-23 08:18:00,
2013-05-23 03:23:00,54.0,52.0,29.91,SE,138,0.0,2.0,93,0.00,,,0.00,WUHU216DAVISVP2,2013-05-23 08:23:00,
2013-05-23 03:28:00,54.0,52.0,29.91,SE,138,0.0,1.0,93,0.00,,,0.00,WUHU216DAVISVP2,2013-05-23 08:28:00,
2013-05-23 03:33:00,54.0,52.0,29.92,SE,138,0.0,0.0,93,0.00,,,0.00,WUHU216DAVISVP2,2013-05-23 08:33:00,
2013-05-23 03:38:00,54.1,52.1,29.92,SE,138,0.0,0.0,93,0.00,,,0.00,WUHU216DAVISVP2,2013-05-23 08:38:00,
2013-05-23 03:43:00,54.0,51.9,29.92,SE,137,2.0,3.0,93,0.00,,,0.00,WUHU216DAVISVP2,2013-05-23 08:43:00,
2013-05-23 03:48:00,53.9,51.9,29.92,SE,138,0.0,3.0,93,0.00,,,0.00,WUHU216DAVISVP2,2013-05-23 08:48:00,
2013-05-23 03:53:00,53.9,51.9,29.92,SE,138,0.0,3.0,93,0.00,,,0.00,WUHU216DAVISVP2,2013-05-23 08:53:00,
2013-05-23 03:58:00,53.9,51.9,29.92,SE,138,0.0,3.0,93,0.00,,,0.00,WUHU216DAVISVP2,2013-05-23 08:58:00,
2013-05-23 04:03:00,54.1,52.0,29.92,SE,138,0.0,1.0,93,0.00,,,0.00,WUHU216DAVISVP2,2013-05-23 09:03:00,
2013-05-23 04:08:00,54.2,52.2,29.92,SE,138,0.0,1.0,93,0.00,,,0.00,WUHU216DAVISVP2,2013-05-23 09:08:00,
2013-05-23 04:13:00,54.2,52.2,29.92,SE,138,0.0,0.0,93,0.00,,,0.00,WUHU216DAVISVP2,2013-05-23 09:13:00,
2013-05-23 04:18:00,54.4,52.4,29.93,SE,138,0.0,0.0,93,0.00,,,0.00,WUHU216DAVISVP2,2013-05-23 09:18:00,
2013-05-23 04:23:00,54.5,52.4,29.92,SE,138,0.0,0.0,93,0.00,,,0.00,WUHU216DAVISVP2,2013-05-23 09:23:00,
2013-05-23 04:28:00,54.4,52.4,29.93,SE,138,0.0,0.0,93,0.00,,,0.00,WUHU216DAVISVP2,2013-05-23 09:28:00,
2013-05-23 04:33:00,54.2,51.9,29.93,SE,138,0.0,0.0,92,0.00,,,0.00,WUHU216DAVISVP2,2013-05-23 09:33:00,
2013-05-23 04:38:00,53.7,51.4,29.93,SE,138,0.0,0.0,92,0.00,,,0.00,WUHU216DAVISVP2,2013-05-23 09:38:00,
2013-05-23 04:43:00,53.6,51.5,29.93,SE,138,0.0,0.0,93,0.00,,,0.00,WUHU216DAVISVP2,2013-05-23 09:43:00,
2013-05-23 04:48:00,53.6,51.6,29.93,SE,138,0.0,0.0,93,0.00,,,0.00,WUHU216DAVISVP2,2013-05-23 09:48:00,
2013-05-23 04:53:00,53.7,51.7,29.93,SE,138,0.0,0.0,93,0.00,,,0.00,WUHU216DAVISVP2,2013-05-23 09:53:00,
2013-05-23 04:58:00,53.8,51.8,29.94,SE,138,0.0,0.0,93,0.00,,,0.00,WUHU216DAVISVP2,2013-05-23 09:58:00,
2013-05-23 05:03:00,53.7,51.7,29.94,SE,138,0.0,0.0,93,0.00,,,0.00,WUHU216DAVISVP2,2013-05-23 10:03:00,
2013-05-23 05:08:00,53.5,51.5,29.94,SE,138,0.0,0.0,93,0.00,,,0.00,WUHU216DAVISVP2,2013-05-23 10:08:00,
2013-05-23 05:14:00,53.5,51.5,29.95,SE,138,0.0,0.0,93,0.00,,,0.00,WUHU216DAVISVP2,2013-05-23 10:14:00,
2013-05-23 05:19:00,53.6,51.8,29.95,SE,138,0.0,0.0,94,0.00,,,0.00,WUHU216DAVISVP2,2013-05-23 10:19:00,
2013-05-23 05:24:00,53.6,51.9,29.95,SE,138,0.0,0.0,94,0.00,,,0.00,WUHU216DAVISVP2,2013-05-23 10:24:00,
2013-05-23 05:29:00,53.5,51.5,29.95,SE,138,0.0,0.0,93,0.00,,,0.00,WUHU216DAVISVP2,2013-05-23 10:29:00,
2013-05-23 05:34:00,53.5,51.4,29.96,SE,138,0.0,0.0,93,0.00,,,0.00,WUHU216DAVISVP2,2013-05-23 10:34:00,
2013-05-23 05:39:00,53.4,51.4,29.96,SE,138,0.0,0.0,93,0.00,,,0.00,WUHU216DAVISVP2,2013-05-23 10:39:00,
2013-05-23 05:44:00,53.5,51.8,29.96,SE,138,2.0,3.0,94,0.00,,,0.00,WUHU216DAVISVP2,2013-05-23 10:44:00,
2013-05-23 05:49:00,53.9,52.1,29.96,SE,138,0.0,3.0,94,0.00,,,0.00,WUHU216DAVISVP2,2013-05-23 10:49:00,
2013-05-23 05:54:00,54.2,52.5,29.96,SE,138,0.0,3.0,94,0.00,,,0.00,WUHU216DAVISVP2,2013-05-23 10:54:00,
2013-05-23 05:59:00,54.6,52.9,29.96,SE,138,0.0,4.0,94,0.00,,,0.00,WUHU216DAVISVP2,2013-05-23 10:59:00,
2013-05-23 06:04:00,54.9,52.8,29.97,SSE,165,7.0,8.0,93,0.00,,,0.00,WUHU216DAVISVP2,2013-05-23 11:04:00,
2013-05-23 06:09:00,55.4,53.4,29.97,South,177,5.0,9.0,93,0.00,,,0.00,WUHU216DAVISVP2,2013-05-23 11:09:00,
2013-05-23 06:14:00,55.8,53.5,29.97,SSE,162,4.0,9.0,92,0.00,,,0.00,WUHU216DAVISVP2,2013-05-23 11:14:00,
2013-05-23 06:19:00,56.1,53.4,29.97,SSE,164,2.0,9.0,91,0.00,,,0.00,WUHU216DAVISVP2,2013-05-23 11:19:00,
2013-05-23 06:24:00,56.2,53.6,29.98,SSE,167,4.0,9.0,91,0.00,,,0.00,WUHU216DAVISVP2,2013-05-23 11:24:00,
2013-05-23 06:29:00,56.4,53.5,29.98,SSE,168,6.0,8.0,90,0.00,,,0.00,WUHU216DAVISVP2,2013-05-23 11:29:00,
2013-05-23 06:34:00,56.6,53.6,29.98,South,173,5.0,8.0,90,0.00,,,0.00,WUHU216DAVISVP2,2013-05-23 11:34:00,
2013-05-23 06:39:00,56.7,53.8,29.99,South,187,5.0,8.0,90,0.00,,,0.00,WUHU216DAVISVP2,2013-05-23 11:39:00,
2013-05-23 06:44:00,56.7,53.8,29.99,South,183,5.0,9.0,90,0.00,,,0.00,WUHU216DAVISVP2,2013-05-23 11:44:00,
2013-05-23 06:49:00,56.9,53.6,29.99,South,184,4.0,9.0,89,0.00,,,0.00,WUHU216DAVISVP2,2013-05-23 11:49:00,
2013-05-23 06:54:00,56.9,53.7,29.99,SSW,205,2.0,10.0,89,0.00,,,0.00,WUHU216DAVISVP2,2013-05-23 11:54:00,
2013-05-23 06:59:00,57.0,53.8,29.99,SSW,202,14.0,14.0,89,0.00,,,0.00,WUHU216DAVISVP2,2013-05-23 11:59:00,
2013-05-23 07:04:00,57.4,53.8,29.99,South,171,4.0,14.0,88,0.00,,,0.00,WUHU216DAVISVP2,2013-05-23 12:04:00,
2013-05-23 07:09:00,57.6,53.8,29.99,SSW,199,4.0,14.0,87,0.00,,,0.00,WUHU216DAVISVP2,2013-05-23 12:09:00,
2013-05-23 07:14:00,57.9,53.7,30.00,South,184,6.0,14.0,86,0.00,,,0.00,WUHU216DAVISVP2,2013-05-23 12:14:00,
2013-05-23 07:19:00,58.0,53.5,30.00,SSW,195,3.0,12.0,85,0.00,,,0.00,WUHU216DAVISVP2,2013-05-23 12:19:00,
2013-05-23 07:24:00,58.3,53.8,30.00,South,184,2.0,12.0,85,0.00,,,0.00,WUHU216DAVISVP2,2013-05-23 12:24:00,
2013-05-23 07:29:00,58.6,53.8,30.00,SSW,196,4.0,12.0,84,0.00,,,0.00,WUHU216DAVISVP2,2013-05-23 12:29:00,
2013-05-23 07:34:00,58.8,53.7,30.00,SSW,200,6.0,12.0,83,0.00,,,0.00,WUHU216DAVISVP2,2013-05-23 12:34:00,
2013-05-23 07:39:00,59.1,53.7,30.00,South,185,5.0,11.0,82,0.00,,,0.00,WUHU216DAVISVP2,2013-05-23 12:39:00,
2013-05-23 07:44:00,59.4,53.6,30.00,South,187,5.0,11.0,81,0.00,,,0.00,WUHU216DAVISVP2,2013-05-23 12:44:00,
2013-05-23 07:49:00,59.7,53.9,30.00,SW,222,5.0,10.0,81,0.00,,,0.00,WUHU216DAVISVP2,2013-05-23 12:49:00,
2013-05-23 07:54:00,60.1,53.6,30.00,South,177,2.0,11.0,79,0.00,,,0.00,WUHU216DAVISVP2,2013-05-23 12:54:00,
2013-05-23 07:59:00,60.4,53.6,30.00,SSW,201,4.0,11.0,78,0.00,,,0.00,WUHU216DAVISVP2,2013-05-23 12:59:00,
2013-05-23 08:04:00,60.6,53.4,30.00,SSW,211,7.0,13.0,77,0.00,,,0.00,WUHU216DAVISVP2,2013-05-23 13:04:00,
2013-05-23 08:09:00,60.6,53.4,30.00,SW,216,12.0,14.0,77,0.00,,,0.00,WUHU216DAVISVP2,2013-05-23 13:09:00,
2013-05-23 08:14:00,60.6,52.3,30.00,South,185,8.0,16.0,74,0.00,,,0.00,WUHU216DAVISVP2,2013-05-23 13:14:00,
2013-05-23 08:19:00,60.5,53.0,30.00,SSW,212,5.0,16.0,76,0.00,,,0.00,WUHU216DAVISVP2,2013-05-23 13:19:00,
2013-05-23 08:24:00,60.5,52.7,29.99,South,185,4.0,16.0,75,0.00,,,0.00,WUHU216DAVISVP2,2013-05-23 13:24:00,
2013-05-23 08:29:00,60.5,51.9,29.98,SW,219,7.0,16.0,73,0.00,,,0.00,WUHU216DAVISVP2,2013-05-23 13:29:00,
2013-05-23 08:34:00,60.5,52.0,29.99,South,189,10.0,17.0,73,0.00,,,0.00,WUHU216DAVISVP2,2013-05-23 13:34:00,
2013-05-23 08:39:00,60.3,51.3,29.99,SSW,202,11.0,17.0,72,0.00,,,0.00,WUHU216DAVISVP2,2013-05-23 13:39:00,
2013-05-23 08:44:00,60.1,51.6,29.99,SW,220,8.0,17.0,73,0.00,,,0.00,WUHU216DAVISVP2,2013-05-23 13:44:00,
2013-05-23 08:49:00,60.2,51.6,30.00,SSW,212,6.0,17.0,73,0.00,,,0.00,WUHU216DAVISVP2,2013-05-23 13:49:00,
2013-05-23 08:54:00,60.4,51.5,30.01,SSW,206,7.0,17.0,72,0.00,,,0.00,WUHU216DAVISVP2,2013-05-23 13:54:00,
2013-05-23 08:59:00,60.4,51.4,30.01,South,177,8.0,14.0,72,0.00,,,0.00,WUHU216DAVISVP2,2013-05-23 13:59:00,
2013-05-23 09:04:00,60.4,51.1,30.03,SSW,196,4.0,14.0,71,0.00,,,0.00,WUHU216DAVISVP2,2013-05-23 14:04:00,
2013-05-23 09:09:00,60.6,51.3,30.03,SE,140,5.0,14.0,71,0.00,,,0.00,WUHU216DAVISVP2,2013-05-23 14:09:00,
2013-05-23 09:14:00,60.2,50.2,30.05,SSE,151,5.0,14.0,69,0.00,,,0.00,WUHU216DAVISVP2,2013-05-23 14:14:00,
2013-05-23 09:19:00,59.9,50.6,30.06,SE,134,2.0,12.0,71,0.00,,,0.00,WUHU216DAVISVP2,2013-05-23 14:19:00,
2013-05-23 09:24:00,59.8,51.3,30.07,ESE,120,5.0,11.0,73,0.00,,,0.00,WUHU216DAVISVP2,2013-05-23 14:24:00,
2013-05-23 09:29:00,60.0,51.4,30.07,SE,129,3.0,11.0,73,0.00,,,0.00,WUHU216DAVISVP2,2013-05-23 14:29:00,
2013-05-23 09:34:00,60.4,51.8,30.07,East,97,8.0,11.0,73,0.00,,,0.00,WUHU216DAVISVP2,2013-05-23 14:34:00,
2013-05-23 09:39:00,60.1,50.4,30.07,ESE,119,7.0,13.0,70,0.00,,,0.00,WUHU216DAVISVP2,2013-05-23 14:39:00,
2013-05-23 09:44:00,59.9,50.2,30.07,SE,139,8.0,13.0,70,0.00,,,0.00,WUHU216DAVISVP2,2013-05-23 14:44:00,
2013-05-23 09:49:00,59.9,50.9,30.06,SSE,164,6.0,13.0,72,0.00,,,0.00,WUHU216DAVISVP2,2013-05-23 14:49:00,
2013-05-23 09:54:00,60.1,50.8,30.07,SE,125,5.0,13.0,71,0.00,,,0.00,WUHU216DAVISVP2,2013-05-23 14:54:00,
2013-05-23 09:59:00,60.2,50.9,30.07,SE,133,5.0,11.0,71,0.00,,,0.00,WUHU216DAVISVP2,2013-05-23 14:59:00,
2013-05-23 10:04:00,60.3,51.3,30.07,ESE,122,10.0,13.0,72,0.00,,,0.00,WUHU216DAVISVP2,2013-05-23 15:04:00,
2013-05-23 10:09:00,60.3,50.3,30.07,SE,129,8.0,13.0,69,0.00,,,0.00,WUHU216DAVISVP2,2013-05-23 15:09:00,
2013-05-23 10:14:00,60.2,50.9,30.07,SE,132,3.0,13.0,71,0.00,,,0.00,WUHU216DAVISVP2,2013-05-23 15:14:00,
2013-05-23 10:19:00,60.2,50.5,30.07,SE,141,9.0,13.0,70,0.00,,,0.00,WUHU216DAVISVP2,2013-05-23 15:19:00,
2013-05-23 10:24:00,60.1,50.4,30.06,South,190,7.0,11.0,70,0.00,,,0.00,WUHU216DAVISVP2,2013-05-23 15:24:00,
2013-05-23 10:29:00,60.5,50.8,30.07,South,172,0.0,11.0,70,0.00,,,0.00,WUHU216DAVISVP2,2013-05-23 15:29:00,
2013-05-23 10:34:00,60.7,51.0,30.07,SE,125,7.0,11.0,70,0.00,,,0.00,WUHU216DAVISVP2,2013-05-23 15:34:00,
2013-05-23 10:39:00,60.6,50.1,30.06,SE,143,7.0,11.0,68,0.00,,,0.00,WUHU216DAVISVP2,2013-05-23 15:39:00,
2013-05-23 10:44:00,60.7,49.8,30.06,SSE,154,6.0,11.0,67,0.00,,,0.00,WUHU216DAVISVP2,2013-05-23 15:44:00,
2013-05-23 10:49:00,60.6,50.5,30.06,South,191,6.0,11.0,69,0.00,,,0.00,WUHU216DAVISVP2,2013-05-23 15:49:00,
2013-05-23 10:54:00,61.2,51.4,30.06,SE,146,6.0,11.0,70,0.00,,,0.00,WUHU216DAVISVP2,2013-05-23 15:54:00,
2013-05-23 10:59:00,61.2,50.7,30.06,East,81,4.0,11.0,68,0.00,,,0.00,WUHU216DAVISVP2,2013-05-23 15:59:00,
2013-05-23 11:04:00,61.1,51.0,30.07,ESE,118,9.0,11.0,69,0.00,,,0.00,WUHU216DAVISVP2,2013-05-23 16:04:00,
2013-05-23 11:09:00,61.1,50.2,30.06,SSE,160,3.0,16.0,67,0.00,,,0.00,WUHU216DAVISVP2,2013-05-23 16:09:00,
2013-05-23 11:14:00,61.2,50.7,30.06,SSE,163,2.0,16.0,68,0.00,,,0.00,WUHU216DAVISVP2,2013-05-23 16:14:00,
2013-05-23 11:19:00,61.7,50.8,30.05,SE,132,7.0,16.0,67,0.00,,,0.00,WUHU216DAVISVP2,2013-05-23 16:19:00,
2013-05-23 11:24:00,62.0,51.5,30.05,SE,134,8.0,16.0,68,0.00,,,0.00,WUHU216DAVISVP2,2013-05-23 16:24:00,
2013-05-23 11:29:00,61.9,50.1,30.05,ESE,118,7.0,13.0,65,0.00,,,0.00,WUHU216DAVISVP2,2013-05-23 16:29:00,
2013-05-23 11:34:00,62.0,51.1,30.05,SE,127,7.0,13.0,67,0.00,,,0.00,WUHU216DAVISVP2,2013-05-23 16:34:00,
2013-05-23 11:39:00,61.9,50.6,30.05,SSE,165,5.0,13.0,66,0.00,,,0.00,WUHU216DAVISVP2,2013-05-23 16:39:00,
2013-05-23 11:44:00,62.2,50.8,30.06,SSE,154,8.0,13.0,66,0.00,,,0.00,WUHU216DAVISVP2,2013-05-23 16:44:00,
2013-05-23 11:49:00,62.4,50.6,30.06,SSE,164,11.0,13.0,65,0.00,,,0.00,WUHU216DAVISVP2,2013-05-23 16:49:00,
2013-05-23 11:54:00,62.6,50.8,30.06,ESE,123,3.0,14.0,65,0.00,,,0.00,WUHU216DAVISVP2,2013-05-23 16:54:00,
2013-05-23 11:59:00,62.4,50.6,30.06,SSE,160,3.0,14.0,65,0.00,,,0.00,WUHU216DAVISVP2,2013-05-23 16:59:00,
2013-05-23 12:04:00,62.6,51.2,30.07,SE,134,7.0,14.0,66,0.00,,,0.00,WUHU216DAVISVP2,2013-05-23 17:04:00,
2013-05-23 12:09:00,62.4,50.6,30.06,SE,139,8.0,13.0,65,0.00,,,0.00,WUHU216DAVISVP2,2013-05-23 17:09:00,
2013-05-23 12:14:00,62.6,51.2,30.06,SE,141,0.0,13.0,66,0.00,,,0.00,WUHU216DAVISVP2,2013-05-23 17:14:00,
2013-05-23 12:19:00,63.2,51.4,30.06,SE,144,3.0,13.0,65,0.00,,,0.00,WUHU216DAVISVP2,2013-05-23 17:19:00,
2013-05-23 12:24:00,63.2,51.4,30.07,ESE,106,5.0,13.0,65,0.00,,,0.00,WUHU216DAVISVP2,2013-05-23 17:24:00,
2013-05-23 12:29:00,63.6,50.5,30.07,South,178,9.0,13.0,62,0.00,,,0.00,WUHU216DAVISVP2,2013-05-23 17:29:00,
2013-05-23 12:34:00,63.2,51.4,30.07,SE,141,4.0,13.0,65,0.00,,,0.00,WUHU216DAVISVP2,2013-05-23 17:34:00,
2013-05-23 12:39:00,63.1,50.5,30.07,SE,142,8.0,13.0,63,0.00,,,0.00,WUHU216DAVISVP2,2013-05-23 17:39:00,
2013-05-23 12:44:00,63.0,50.8,30.07,SE,141,12.0,13.0,64,0.00,,,0.00,WUHU216DAVISVP2,2013-05-23 17:44:00,
2013-05-23 12:49:00,63.0,49.0,30.07,SSE,148,8.0,13.0,60,0.00,,,0.00,WUHU216DAVISVP2,2013-05-23 17:49:00,
2013-05-23 12:54:00,63.0,50.8,30.07,ESE,123,9.0,12.0,64,0.00,,,0.00,WUHU216DAVISVP2,2013-05-23 17:54:00,
2013-05-23 12:59:00,63.0,49.0,30.07,SE,132,5.0,15.0,60,0.00,,,0.00,WUHU216DAVISVP2,2013-05-23 17:59:00,
2013-05-23 13:04:00,62.9,49.4,30.07,ESE,118,5.0,15.0,61,0.00,,,0.00,WUHU216DAVISVP2,2013-05-23 18:04:00,
2013-05-23 13:09:00,63.7,51.5,30.07,ESE,118,6.0,15.0,64,0.00,,,0.00,WUHU216DAVISVP2,2013-05-23 18:09:00,
2013-05-23 13:14:00,63.9,49.9,30.07,South,169,4.0,15.0,60,0.00,,,0.00,WUHU216DAVISVP2,2013-05-23 18:14:00,
2013-05-23 13:19:00,63.9,51.7,30.07,South,185,3.0,11.0,64,0.00,,,0.00,WUHU216DAVISVP2,2013-05-23 18:19:00,
2013-05-23 13:24:00,64.5,51.0,30.07,SSE,158,3.0,11.0,61,0.00,,,0.00,WUHU216DAVISVP2,2013-05-23 18:24:00,
2013-05-23 13:29:00,64.4,51.2,30.07,ESE,117,2.0,13.0,62,0.00,,,0.00,WUHU216DAVISVP2,2013-05-23 18:29:00,
2013-05-23 13:34:00,64.3,51.6,30.07,ESE,117,8.0,13.0,63,0.00,,,0.00,WUHU216DAVISVP2,2013-05-23 18:34:00,
2013-05-23 13:39:00,64.5,51.8,30.07,SSE,150,7.0,13.0,63,0.00,,,0.00,WUHU216DAVISVP2,2013-05-23 18:39:00,
2013-05-23 13:44:00,65.0,52.2,30.07,SE,144,4.0,13.0,63,0.00,,,0.00,WUHU216DAVISVP2,2013-05-23 18:44:00,
2013-05-23 13:49:00,64.8,51.6,30.07,ESE,122,10.0,13.0,62,0.00,,,0.00,WUHU216DAVISVP2,2013-05-23 18:49:00,
2013-05-23 13:54:00,64.8,51.7,30.07,SSE,150,4.0,13.0,62,0.00,,,0.00,WUHU216DAVISVP2,2013-05-23 18:54:00,
2013-05-23 13:59:00,65.2,52.0,30.07,South,191,7.0,13.0,62,0.00,,,0.00,WUHU216DAVISVP2,2013-05-23 18:59:00,
2013-05-23 14:04:00,65.4,51.8,30.07,SSE,152,3.0,13.0,61,0.00,,,0.00,WUHU216DAVISVP2,2013-05-23 19:04:00,
2013-05-23 14:09:00,65.6,51.9,30.07,SE,135,8.0,13.0,61,0.00,,,0.00,WUHU216DAVISVP2,2013-05-23 19:09:00,
2013-05-23 14:14:00,65.3,52.6,30.07,SE,140,7.0,13.0,63,0.00,,,0.00,WUHU216DAVISVP2,2013-05-23 19:14:00,
2013-05-23 14:19:00,65.3,52.1,30.07,SSW,213,4.0,13.0,62,0.00,,,0.00,WUHU216DAVISVP2,2013-05-23 19:19:00,
2013-05-23 14:24:00,65.6,51.9,30.07,SSW,208,5.0,13.0,61,0.00,,,0.00,WUHU216DAVISVP2,2013-05-23 19:24:00,
2013-05-23 14:29:00,65.8,53.1,30.07,South,181,4.0,13.0,63,0.00,,,0.00,WUHU216DAVISVP2,2013-05-23 19:29:00,
2013-05-23 14:34:00,66.1,53.3,30.07,South,181,6.0,13.0,63,0.00,,,0.00,WUHU216DAVISVP2,2013-05-23 19:34:00,
2013-05-23 14:39:00,66.4,52.7,30.07,SSW,210,5.0,13.0,61,0.00,,,0.00,WUHU216DAVISVP2,2013-05-23 19:39:00,
2013-05-23 14:44:00,66.6,53.3,30.07,SE,143,5.0,13.0,62,0.00,,,0.00,WUHU216DAVISVP2,2013-05-23 19:44:00,
2013-05-23 14:49:00,66.8,53.0,30.07,ESE,112,3.0,10.0,61,0.00,,,0.00,WUHU216DAVISVP2,2013-05-23 19:49:00,
2013-05-23 14:54:00,66.8,53.1,30.07,SSW,213,0.0,10.0,61,0.00,,,0.00,WUHU216DAVISVP2,2013-05-23 19:54:00,
2013-05-23 14:59:00,66.8,53.6,30.07,South,170,2.0,11.0,62,0.00,,,0.00,WUHU216DAVISVP2,2013-05-23 19:59:00,
2013-05-23 15:04:00,66.9,53.2,30.07,ESE,118,10.0,11.0,61,0.00,,,0.00,WUHU216DAVISVP2,2013-05-23 20:04:00,
2013-05-23 15:09:00,66.9,53.7,30.07,SSW,205,0.0,13.0,62,0.00,,,0.00,WUHU216DAVISVP2,2013-05-23 20:09:00,
2013-05-23 15:14:00,67.3,53.6,30.07,SSE,165,3.0,12.0,61,0.00,,,0.00,WUHU216DAVISVP2,2013-05-23 20:14:00,
2013-05-23 15:19:00,67.7,53.5,30.07,SSW,210,7.0,13.0,60,0.00,,,0.00,WUHU216DAVISVP2,2013-05-23 20:19:00,
2013-05-23 15:24:00,67.5,53.3,30.07,SSW,193,7.0,14.0,60,0.00,,,0.00,WUHU216DAVISVP2,2013-05-23 20:24:00,
2013-05-23 15:29:00,67.4,53.7,30.07,SSW,195,6.0,14.0,61,0.00,,,0.00,WUHU216DAVISVP2,2013-05-23 20:29:00,
2013-05-23 15:34:00,67.7,53.4,30.07,South,173,3.0,13.0,60,0.00,,,0.00,WUHU216DAVISVP2,2013-05-23 20:34:00,
2013-05-23 15:39:00,67.9,53.6,30.07,South,184,1.0,13.0,60,0.00,,,0.00,WUHU216DAVISVP2,2013-05-23 20:39:00,
2013-05-23 15:44:00,68.3,53.6,30.07,SSW,206,7.0,12.0,59,0.00,,,0.00,WUHU216DAVISVP2,2013-05-23 20:44:00,
2013-05-23 15:49:00,68.5,53.8,30.07,SW,225,6.0,12.0,59,0.00,,,0.00,WUHU216DAVISVP2,2013-05-23 20:49:00,
2013-05-23 15:54:00,68.6,53.9,30.07,SSE,148,5.0,12.0,59,0.00,,,0.00,WUHU216DAVISVP2,2013-05-23 20:54:00,
2013-05-23 15:59:00,68.6,53.8,30.07,SE,143,8.0,13.0,59,0.00,,,0.00,WUHU216DAVISVP2,2013-05-23 20:59:00,
2013-05-23 16:04:00,68.5,54.2,30.07,SE,144,8.0,13.0,60,0.00,,,0.00,WUHU216DAVISVP2,2013-05-23 21:04:00,
2013-05-23 16:09:00,68.2,54.0,30.06,SSE,153,0.0,13.0,60,0.00,,,0.00,WUHU216DAVISVP2,2013-05-23 21:09:00,
2013-05-23 16:14:00,69.0,54.7,30.06,South,173,2.0,13.0,60,0.00,,,0.00,WUHU216DAVISVP2,2013-05-23 21:14:00,
2013-05-23 16:19:00,69.3,55.0,30.06,SSW,209,8.0,12.0,60,0.00,,,0.00,WUHU216DAVISVP2,2013-05-23 21:19:00,
2013-05-23 16:24:00,69.4,54.6,30.06,SSW,201,7.0,13.0,59,0.00,,,0.00,WUHU216DAVISVP2,2013-05-23 21:24:00,
2013-05-23 16:29:00,69.4,55.1,30.06,South,172,4.0,13.0,60,0.00,,,0.00,WUHU216DAVISVP2,2013-05-23 21:29:00,
2013-05-23 16:34:00,69.4,55.1,30.06,SE,143,7.0,13.0,60,0.00,,,0.00,WUHU216DAVISVP2,2013-05-23 21:34:00,
2013-05-23 16:39:00,69.4,55.1,30.06,South,186,8.0,13.0,60,0.00,,,0.00,WUHU216DAVISVP2,2013-05-23 21:39:00,
2013-05-23 16:44:00,69.6,55.7,30.05,SSW,208,7.0,12.0,61,0.00,,,0.00,WUHU216DAVISVP2,2013-05-23 21:44:00,
2013-05-23 16:49:00,69.7,55.9,30.05,SSW,200,4.0,12.0,61,0.00,,,0.00,WUHU216DAVISVP2,2013-05-23 21:49:00,
2013-05-23 16:54:00,69.9,55.5,30.05,SSE,156,5.0,13.0,60,0.00,,,0.00,WUHU216DAVISVP2,2013-05-23 21:54:00,
2013-05-23 16:59:00,70.0,56.1,30.05,SW,231,3.0,13.0,61,0.00,,,0.00,WUHU216DAVISVP2,2013-05-23 21:59:00,
2013-05-23 17:04:00,70.2,56.7,30.05,SSW,208,12.0,13.0,62,0.00,,,0.00,WUHU216DAVISVP2,2013-05-23 22:04:00,
2013-05-23 17:09:00,70.1,56.2,30.05,South,190,6.0,14.0,61,0.00,,,0.00,WUHU216DAVISVP2,2013-05-23 22:09:00,
2013-05-23 17:14:00,70.1,56.2,30.05,SSW,205,6.0,14.0,61,0.00,,,0.00,WUHU216DAVISVP2,2013-05-23 22:14:00,
2013-05-23 17:19:00,69.9,57.0,30.05,SSW,202,2.0,14.0,63,0.00,,,0.00,WUHU216DAVISVP2,2013-05-23 22:19:00,
2013-05-23 17:24:00,70.3,57.3,30.05,SW,235,3.0,14.0,63,0.00,,,0.00,WUHU216DAVISVP2,2013-05-23 22:24:00,
2013-05-23 17:29:00,70.3,56.9,30.05,SW,228,7.0,16.0,62,0.00,,,0.00,WUHU216DAVISVP2,2013-05-23 22:29:00,
2013-05-23 17:34:00,70.3,56.4,30.05,South,186,6.0,16.0,61,0.00,,,0.00,WUHU216DAVISVP2,2013-05-23 22:34:00,
2013-05-23 17:39:00,70.5,57.0,30.05,SW,225,5.0,16.0,62,0.00,,,0.00,WUHU216DAVISVP2,2013-05-23 22:39:00,
2013-05-23 17:44:00,70.5,57.1,30.05,SSW,197,10.0,16.0,62,0.00,,,0.00,WUHU216DAVISVP2,2013-05-23 22:44:00,
2013-05-23 17:49:00,70.7,57.7,30.05,South,191,5.0,14.0,63,0.00,,,0.00,WUHU216DAVISVP2,2013-05-23 22:49:00,
2013-05-23 17:54:00,70.7,57.7,30.05,SSW,205,10.0,14.0,63,0.00,,,0.00,WUHU216DAVISVP2,2013-05-23 22:54:00,
2013-05-23 17:59:00,70.7,57.7,30.05,SW,226,6.0,13.0,63,0.00,,,0.00,WUHU216DAVISVP2,2013-05-23 22:59:00,
2013-05-23 18:04:00,70.7,57.6,30.05,SW,220,5.0,13.0,63,0.00,,,0.00,WUHU216DAVISVP2,2013-05-23 23:04:00,
2013-05-23 18:09:00,70.5,57.5,30.05,SSW,200,7.0,13.0,63,0.00,,,0.00,WUHU216DAVISVP2,2013-05-23 23:09:00,
2013-05-23 18:14:00,70.3,57.3,30.05,SW,220,5.0,13.0,63,0.00,,,0.00,WUHU216DAVISVP2,2013-05-23 23:14:00,
2013-05-23 18:19:00,70.1,57.5,30.05,WSW,241,11.0,13.0,64,0.00,,,0.00,WUHU216DAVISVP2,2013-05-23 23:19:00,
2013-05-23 18:24:00,69.7,56.7,30.05,SW,222,7.0,16.0,63,0.00,,,0.00,WUHU216DAVISVP2,2013-05-23 23:24:00,
2013-05-23 18:29:00,69.9,57.8,30.05,SW,231,2.0,16.0,65,0.00,,,0.00,WUHU216DAVISVP2,2013-05-23 23:29:00,
2013-05-23 18:34:00,70.0,57.9,30.06,SW,214,4.0,16.0,65,0.00,,,0.00,WUHU216DAVISVP2,2013-05-23 23:34:00,
2013-05-23 18:39:00,69.8,57.7,30.06,SSW,196,6.0,16.0,65,0.00,,,0.00,WUHU216DAVISVP2,2013-05-23 23:39:00,
2013-05-23 18:44:00,69.4,57.7,30.06,West,260,8.0,13.0,66,0.00,,,0.00,WUHU216DAVISVP2,2013-05-23 23:44:00,
2013-05-23 18:49:00,69.1,57.9,30.06,SW,221,7.0,14.0,67,0.00,,,0.00,WUHU216DAVISVP2,2013-05-23 23:49:00,
2013-05-23 18:54:00,68.8,57.6,30.06,SW,226,4.0,14.0,67,0.00,,,0.00,WUHU216DAVISVP2,2013-05-23 23:54:00,
2013-05-23 18:59:00,68.7,57.0,30.06,SW,220,7.0,14.0,66,0.00,,,0.00,WUHU216DAVISVP2,2013-05-23 23:59:00,
2013-05-23 19:04:00,68.5,56.9,30.07,SW,231,10.0,14.0,66,0.00,,,0.00,WUHU216DAVISVP2,2013-05-24 00:04:00,
2013-05-23 19:09:00,68.3,57.1,30.06,WSW,247,6.0,14.0,67,0.00,,,0.00,WUHU216DAVISVP2,2013-05-24 00:09:00,
2013-05-23 19:14:00,68.0,57.3,30.06,SSW,212,8.0,14.0,68,0.00,,,0.00,WUHU216DAVISVP2,2013-05-24 00:14:00,
2013-05-23 19:19:00,67.9,57.1,30.07,WSW,246,3.0,14.0,68,0.00,,,0.00,WUHU216DAVISVP2,2013-05-24 00:19:00,
2013-05-23 19:24:00,67.7,56.9,30.06,WSW,245,5.0,12.0,68,0.00,,,0.00,WUHU216DAVISVP2,2013-05-24 00:24:00,
2013-05-23 19:29:00,67.5,56.8,30.07,SW,220,2.0,11.0,68,0.00,,,0.00,WUHU216DAVISVP2,2013-05-24 00:29:00,
2013-05-23 19:34:00,67.4,56.7,30.06,SW,228,7.0,11.0,68,0.00,,,0.00,WUHU216DAVISVP2,2013-05-24 00:34:00,
2013-05-23 19:39:00,67.4,56.6,30.07,SW,219,7.0,11.0,68,0.00,,,0.00,WUHU216DAVISVP2,2013-05-24 00:39:00,
2013-05-23 19:44:00,67.1,56.8,30.07,WSW,240,2.0,11.0,69,0.00,,,0.00,WUHU216DAVISVP2,2013-05-24 00:44:00,
2013-05-23 19:49:00,67.2,56.9,30.08,SW,222,6.0,11.0,69,0.00,,,0.00,WUHU216DAVISVP2,2013-05-24 00:49:00,
2013-05-23 19:54:00,67.2,56.8,30.08,SSW,193,4.0,10.0,69,0.00,,,0.00,WUHU216DAVISVP2,2013-05-24 00:54:00,
2013-05-23 19:59:00,67.0,56.7,30.07,SW,222,4.0,11.0,69,0.00,,,0.00,WUHU216DAVISVP2,2013-05-24 00:59:00,
2013-05-23 20:04:00,66.9,56.6,30.07,SW,214,8.0,11.0,69,0.00,,,0.00,WUHU216DAVISVP2,2013-05-24 01:04:00,
2013-05-23 20:09:00,66.6,56.6,30.07,SSW,212,6.0,11.0,70,0.00,,,0.00,WUHU216DAVISVP2,2013-05-24 01:09:00,
2013-05-23 20:14:00,66.2,56.3,30.08,SW,229,7.0,11.0,70,0.00,,,0.00,WUHU216DAVISVP2,2013-05-24 01:14:00,
2013-05-23 20:19:00,66.0,56.1,30.08,SW,233,10.0,12.0,70,0.00,,,0.00,WUHU216DAVISVP2,2013-05-24 01:19:00,
2013-05-23 20:24:00,65.8,55.5,30.08,WSW,247,7.0,15.0,69,0.00,,,0.00,WUHU216DAVISVP2,2013-05-24 01:24:00,
2013-05-23 20:29:00,65.4,55.6,30.08,WSW,242,7.0,15.0,70,0.00,,,0.00,WUHU216DAVISVP2,2013-05-24 01:29:00,
2013-05-23 20:34:00,65.1,55.2,30.09,WSW,238,7.0,15.0,70,0.00,,,0.00,WUHU216DAVISVP2,2013-05-24 01:34:00,
2013-05-23 20:39:00,64.9,55.0,30.09,SW,235,7.0,15.0,70,0.00,,,0.00,WUHU216DAVISVP2,2013-05-24 01:39:00,
2013-05-23 20:44:00,64.5,55.1,30.09,WSW,239,8.0,14.0,71,0.00,,,0.00,WUHU216DAVISVP2,2013-05-24 01:44:00,
2013-05-23 20:49:00,64.3,54.9,30.09,West,272,10.0,14.0,71,0.00,,,0.00,WUHU216DAVISVP2,2013-05-24 01:49:00,
2013-05-23 20:54:00,64.1,55.0,30.09,WSW,240,4.0,13.0,72,0.00,,,0.00,WUHU216DAVISVP2,2013-05-24 01:54:00,
2013-05-23 20:59:00,63.8,54.7,30.09,WSW,239,7.0,13.0,72,0.00,,,0.00,WUHU216DAVISVP2,2013-05-24 01:59:00,
2013-05-23 21:04:00,63.4,54.7,30.09,WSW,242,8.0,13.0,73,0.00,,,0.00,WUHU216DAVISVP2,2013-05-24 02:04:00,
2013-05-23 21:09:00,63.2,54.5,30.09,WSW,237,9.0,15.0,73,0.00,,,0.00,WUHU216DAVISVP2,2013-05-24 02:09:00,
2013-05-23 21:14:00,63.0,54.7,30.09,WSW,252,9.0,15.0,74,0.00,,,0.00,WUHU216DAVISVP2,2013-05-24 02:14:00,
2013-05-23 21:19:00,62.7,54.5,30.09,WSW,254,9.0,15.0,74,0.00,,,0.00,WUHU216DAVISVP2,2013-05-24 02:19:00,
2013-05-23 21:24:00,62.6,54.3,30.09,West,260,9.0,15.0,74,0.00,,,0.00,WUHU216DAVISVP2,2013-05-24 02:24:00,
2013-05-23 21:29:00,62.3,54.4,30.09,West,261,9.0,15.0,75,0.00,,,0.00,WUHU216DAVISVP2,2013-05-24 02:29:00,
2013-05-23 21:34:00,62.1,54.2,30.09,WSW,257,7.0,15.0,75,0.00,,,0.00,WUHU216DAVISVP2,2013-05-24 02:34:00,
2013-05-23 21:39:00,61.9,53.7,30.09,West,264,14.0,15.0,74,0.00,,,0.00,WUHU216DAVISVP2,2013-05-24 02:39:00,
2013-05-23 21:44:00,61.8,53.6,30.09,WSW,252,6.0,14.0,74,0.00,,,0.00,WUHU216DAVISVP2,2013-05-24 02:44:00,
2013-05-23 21:49:00,61.6,53.3,30.09,WSW,256,7.0,14.0,74,0.00,,,0.00,WUHU216DAVISVP2,2013-05-24 02:49:00,
2013-05-23 21:54:00,61.4,53.5,30.10,WSW,255,5.0,14.0,75,0.00,,,0.00,WUHU216DAVISVP2,2013-05-24 02:54:00,
2013-05-23 21:59:00,61.2,53.4,30.09,West,260,9.0,14.0,75,0.00,,,0.00,WUHU216DAVISVP2,2013-05-24 02:59:00,
2013-05-23 22:04:00,61.0,53.1,30.10,West,270,7.0,13.0,75,0.00,,,0.00,WUHU216DAVISVP2,2013-05-24 03:04:00,
2013-05-23 22:09:00,60.9,53.4,30.10,WSW,255,7.0,13.0,76,0.00,,,0.00,WUHU216DAVISVP2,2013-05-24 03:09:00,
2013-05-23 22:14:00,60.7,53.2,30.11,WSW,250,8.0,13.0,76,0.00,,,0.00,WUHU216DAVISVP2,2013-05-24 03:14:00,
2013-05-23 22:19:00,60.6,53.5,30.11,West,262,5.0,12.0,77,0.00,,,0.00,WUHU216DAVISVP2,2013-05-24 03:19:00,
2013-05-23 22:24:00,60.5,53.4,30.12,West,266,7.0,12.0,77,0.00,,,0.00,WUHU216DAVISVP2,2013-05-24 03:24:00,
2013-05-23 22:29:00,60.4,53.2,30.12,WSW,258,6.0,12.0,77,0.00,,,0.00,WUHU216DAVISVP2,2013-05-24 03:29:00,
2013-05-23 22:34:00,60.3,53.1,30.13,WSW,247,5.0,12.0,77,0.00,,,0.00,WUHU216DAVISVP2,2013-05-24 03:34:00,
2013-05-23 22:39:00,60.1,53.3,30.13,WSW,243,6.0,11.0,78,0.00,,,0.00,WUHU216DAVISVP2,2013-05-24 03:39:00,
2013-05-23 22:44:00,60.0,53.1,30.13,WSW,256,5.0,12.0,78,0.00,,,0.00,WUHU216DAVISVP2,2013-05-24 03:44:00,
2013-05-23 22:49:00,59.8,53.0,30.13,WSW,245,8.0,12.0,78,0.00,,,0.00,WUHU216DAVISVP2,2013-05-24 03:49:00,
2013-05-23 22:54:00,59.6,53.2,30.13,WSW,252,10.0,12.0,79,0.00,,,0.00,WUHU216DAVISVP2,2013-05-24 03:54:00,
2013-05-23 22:59:00,59.5,53.0,30.14,WNW,298,5.0,13.0,79,0.00,,,0.00,WUHU216DAVISVP2,2013-05-24 03:59:00,
2013-05-23 23:01:00,59.5,53.0,30.14,West,262,3.0,13.0,79,0.00,,,0.00,WUHU216DAVISVP2,2013-05-24 04:01:00,
2013-05-23 23:06:00,59.3,52.8,30.13,West,262,4.0,16.0,79,0.00,,,0.00,WUHU216DAVISVP2,2013-05-24 04:06:00,
2013-05-23 23:11:00,59.3,52.8,30.13,West,279,8.0,16.0,79,0.00,,,0.00,WUHU216DAVISVP2,2013-05-24 04:11:00,
2013-05-23 23:16:00,59.0,52.6,30.13,West,264,3.0,16.0,79,0.00,,,0.00,WUHU216DAVISVP2,2013-05-24 04:16:00,
2013-05-23 23:21:00,58.9,52.8,30.13,WSW,258,3.0,16.0,80,0.00,,,0.00,WUHU216DAVISVP2,2013-05-24 04:21:00,
2013-05-23 23:26:00,58.7,52.9,30.13,WSW,254,10.0,13.0,81,0.00,,,0.00,WUHU216DAVISVP2,2013-05-24 04:26:00,
2013-05-23 23:31:00,58.5,52.7,30.14,WNW,287,3.0,12.0,81,0.00,,,0.00,WUHU216DAVISVP2,2013-05-24 04:31:00,
2013-05-23 23:36:00,58.3,52.5,30.14,WNW,287,5.0,12.0,81,0.00,,,0.00,WUHU216DAVISVP2,2013-05-24 04:36:00,
2013-05-23 23:41:00,58.1,52.7,30.14,West,267,8.0,12.0,82,0.00,,,0.00,WUHU216DAVISVP2,2013-05-24 04:41:00,
2013-05-23 23:46:00,57.9,52.4,30.14,West,275,6.0,11.0,82,0.00,,,0.00,WUHU216DAVISVP2,2013-05-24 04:46:00,
2013-05-23 23:51:00,57.8,52.3,30.15,West,272,1.0,11.0,82,0.00,,,0.00,WUHU216DAVISVP2,2013-05-24 04:51:00,
2013-05-23 23:56:00,57.6,52.5,30.15,WNW,283,0.0,11.0,83,0.00,,,0.00,WUHU216DAVISVP2,2013-05-24 04:56:00,